パンスターズ彗星

C/2012 A1 ( PanSTARRS )

English version
Home page
Updated on June 11, 2016

---------------------------------------------------------------------

・ プロフィール

発見日 2012年1月2日
発見光度 20.5等
発見者 Pan-STARRS 1 telescope (Haleakala)

・ 写真集

・ 軌道要素

Epoch 2013 Dec. 14.0 TT = JDT 2456640.5
T 2013 Dec. 2.22005 TT                                  MPCW
q   7.6025245            (2000.0)            P               Q
z  -0.0002149      Peri.  191.93492     -0.03047733     +0.52640967
 +/-0.0000011      Node   277.97149     +0.97306921     +0.20995053
e   1.0016341      Incl.  120.91002     +0.22848951     -0.82390147
From 288 observations 2012 Jan. 2-2015 Mar. 9, mean residual 0".5.

・ 光度変化

        m1 = 5.0 + 5 logΔ + 10.0 log r

---------------------------------------------------------------------

軌道要素はM.P.E.C. 2015-G03に掲載されたものです。
光度グラフはComet for Windowsで作成したものです。

---------------------------------------------------------------------

Copyright(C) Seiichi Yoshida (comet@aerith.net). All rights reserved.